Simultaneous Nadir Overpasses (SNOs) Predictions

Prediction of SNOs between GOES-15 and NPP Satellite Orbit:

Table of predicted SNOs for the next 14.0 days since TLE Epoch: 3/25/2016
Index Date Time (GOES-15) GOES-15 Lat,Lon NPP Lat,Lon Distance(km) Time Diff (sec)
1 03/25/2016 22:24:55 -0.03,-134.98 0.09,-134.33 73.06 80
2 03/28/2016 10:28:00 0.03,-135.06 0.04,-135.08 3.09 80
3 03/30/2016 22:28:32 -0.03,-135.12 -0.21,-135.87 85.18 80
4 03/31/2016 22:12:28 -0.03,-135.15 0.79,-131.34 433.63 80
5 04/02/2016 10:34:17 0.03,-135.19 0.33,-136.62 162.95 80
6 04/03/2016 10:12:53 0.03,-135.21 -0.67,-132.09 355.16 80
7 04/04/2016 22:34:49 -0.04,-135.23 -0.55,-137.39 247.53 80
8 04/05/2016 22:18:46 -0.03,-135.24 0.51,-132.88 270.52 80
9 04/07/2016 10:40:34
